Araxos, Greece

11:45 AM EET on December 10, 2016 (GMT +0200)
Araxos Air Base

Weather History for LGRX - February, 2013

Change the Weather History Date:

Thursday, February 28, 2013

  Actual Average Record
Temperature  
Mean Temperature 50 °F -  
Max Temperature 59 °F 59 °F 68 °F (2016)
Min Temperature 42 °F 44 °F 33 °F (2003)
Degree Days  
Heating Degree Days 14    
Moisture  
Dew Point 43 °F    
Average Humidity 74    
Maximum Humidity 93    
Minimum Humidity 55    
Precipitation  
Precipitation 0.00 in - - ()
Sea Level Pressure  
Sea Level Pressure 30.12 in    
Wind  
Wind Speed 1 mph ()    
Max Wind Speed 9 mph    
Max Gust Speed -    
Visibility 6.2 miles    
Events      
Averages and records for this station are not official NWS values.
T = Trace of Precipitation, MM = Missing Value Source: Averaged Metar Reports

Daily Weather History Graph

Daily Weather History Graph

Search for Another Location

Airport or City:

Trip Planner

Search our weather history database for the weather conditions in past years. The results will help you decide how hot, cold, wet, or windy it might be!

Date:

Astronomy

Feb. 28, 2013 Rise Set
Actual Time 7:07 AM EET 6:26 PM EET
Civil Twilight 6:41 AM EET 6:53 PM EET
Nautical Twilight 6:10 AM EET 7:23 PM EET
Astronomical Twilight 5:40 AM EET 7:54 PM EET
Moon 9:29 PM EET (2/28) 8:09 AM EET (2/28)
Length of Visible Light 12h 11m
Length of Day
11h 19m
Waning Gibbous, 93% of the Moon is Illuminated
Feb 28
Waning Gibbous
Mar 4
Last Quarter
Mar 11
New
Mar 19
First Quarter
Mar 27
Full

Hourly Weather History & Observations

Time (EET) Temp. Dew Point Humidity Pressure Visibility Wind Dir Wind Speed Gust Speed Precip Events Conditions
12:50 AM 50.0 °F 46.4 °F 87% 30.09 in 6.2 mi Calm Calm - N/A   Drizzle
1:50 AM 50.0 °F 44.6 °F 82% 30.09 in 6.2 mi Calm Calm - N/A   Mostly Cloudy
2:50 AM 48.2 °F 42.8 °F 82% 30.09 in 6.2 mi Calm Calm - N/A   Mostly Cloudy
3:50 AM 46.4 °F 41.0 °F 81% 30.09 in 6.2 mi Calm Calm - N/A   Scattered Clouds
4:50 AM 44.6 °F 41.0 °F 87% 30.09 in 6.2 mi Calm Calm - N/A   Scattered Clouds
5:20 AM 44.6 °F 41.0 °F 87% 30.09 in 6.2 mi Calm Calm - N/A   Scattered Clouds
5:50 AM 44.6 °F 37.4 °F 76% 30.12 in 6.2 mi Calm Calm - N/A   Scattered Clouds
6:20 AM 44.6 °F 37.4 °F 76% 30.12 in 6.2 mi Calm Calm - N/A   Scattered Clouds
6:50 AM 42.8 °F 39.2 °F 87% 30.12 in 6.2 mi Calm Calm - N/A   Scattered Clouds
7:20 AM 42.8 °F 41.0 °F 93% 30.09 in 6.2 mi Calm Calm - N/A   Scattered Clouds
7:50 AM 42.8 °F 41.0 °F 93% 30.09 in 6.2 mi Calm Calm - N/A   Scattered Clouds
8:20 AM 42.8 °F 41.0 °F 93% 30.09 in 6.2 mi Calm Calm - N/A   Scattered Clouds
8:50 AM 46.4 °F 42.8 °F 87% 30.12 in 6.2 mi Calm Calm - N/A   Scattered Clouds
9:20 AM 46.4 °F 42.8 °F 87% 30.12 in 6.2 mi Calm Calm - N/A   Scattered Clouds
9:50 AM 51.8 °F 44.6 °F 76% 30.15 in 6.2 mi Calm Calm - N/A   Partly Cloudy
10:20 AM 51.8 °F 44.6 °F 76% 30.15 in 6.2 mi Calm Calm - N/A   Partly Cloudy
10:50 AM 53.6 °F 46.4 °F 77% 30.15 in 6.2 mi Calm Calm - N/A   Partly Cloudy
11:20 AM 53.6 °F 46.4 °F 77% 30.15 in 6.2 mi Calm Calm - N/A   Partly Cloudy
11:50 AM 55.4 °F 44.6 °F 67% 30.15 in 6.2 mi Variable 3.5 mph - N/A   Scattered Clouds
12:20 PM 55.4 °F 44.6 °F 67% 30.15 in 6.2 mi Calm Calm - N/A   Partly Cloudy
12:50 PM 55.4 °F 44.6 °F 67% 30.15 in 6.2 mi Variable 3.5 mph - N/A   Partly Cloudy
1:20 PM 55.4 °F 44.6 °F 67% 30.15 in 6.2 mi Variable 3.5 mph - N/A   Partly Cloudy
1:50 PM 57.2 °F 42.8 °F 59% 30.15 in 6.2 mi Calm Calm - N/A   Partly Cloudy
2:20 PM 57.2 °F 42.8 °F 59% 30.15 in 6.2 mi Calm Calm - N/A   Partly Cloudy
2:50 PM 59.0 °F 44.6 °F 59% 30.12 in 6.2 mi Variable 3.5 mph - N/A   Partly Cloudy
3:20 PM 59.0 °F 44.6 °F 59% 30.12 in 6.2 mi Variable 3.5 mph - N/A   Partly Cloudy
3:50 PM 57.2 °F 41.0 °F 55% 30.12 in 6.2 mi Variable 3.5 mph - N/A   Partly Cloudy
4:20 PM 57.2 °F 41.0 °F 55% 30.12 in 6.2 mi Calm Calm - N/A   Partly Cloudy
4:50 PM 59.0 °F 44.6 °F 59% 30.12 in 6.2 mi Calm Calm - N/A   Partly Cloudy
5:20 PM 59.0 °F 44.6 °F 59% 30.12 in 6.2 mi Calm Calm - N/A   Partly Cloudy
5:50 PM 57.2 °F 46.4 °F 67% 30.12 in 6.2 mi Calm Calm - N/A   Partly Cloudy
6:20 PM 57.2 °F 46.4 °F 67% 30.12 in 6.2 mi Calm Calm - N/A   Partly Cloudy
6:50 PM 53.6 °F 46.4 °F 77% 30.12 in 6.2 mi Calm Calm - N/A   Partly Cloudy
7:20 PM 53.6 °F 46.4 °F 77% 30.12 in 6.2 mi Calm Calm - N/A   Partly Cloudy
7:50 PM 53.6 °F 42.8 °F 67% 30.12 in 6.2 mi NE 5.8 mph - N/A   Partly Cloudy
8:50 PM 53.6 °F 44.6 °F 72% 30.12 in 6.2 mi NNE 9.2 mph - N/A   Partly Cloudy
9:50 PM 53.6 °F 44.6 °F 72% 30.12 in 6.2 mi NNE 6.9 mph - N/A   Partly Cloudy
10:50 PM 53.6 °F 44.6 °F 72% 30.12 in 6.2 mi NE 9.2 mph - N/A   Partly Cloudy
11:50 PM 51.8 °F 44.6 °F 76% 30.12 in 6.2 mi NE 8.1 mph - N/A   Partly Cloudy